M I D A S
Marine Information and Data Acquisition System
Tripno 1234 of the Zeeleeuw from 2007-03-19 08:20:02 to 2007-03-19 11:45:25
Back to CruiseResearch ActivitiesStationsMapUnderway DataData graphs

EquipmentUnitsComments
TimeDGPSUTC
LatitudeDGPSDM.mWGS84
LongitudeDGPSDM.mWGS84
SpeedMeteo Stationm/sRelative wind speed
DirectionMeteo StationdegRelative wind direction
TemperatureMeteo Stationdeg CelciusAir temperature
PressureMeteo StationPaAtmospheric pressure
HumidityMeteo Station%Relative humidity
Missing or incorrect values are displayed as -999
Metereological data collected by the RV Zeeleeuw from 2007-03-19 08:19:51 to 2007-03-19 12:56:07
                                                                                    Next 1000 lines
Time Latitude Longitude Speed Direction Temperature Pressure Humidity
2007-03-19 08:20:01 51°13.598 2°56.094 -999 -999 -999 -999 -999
2007-03-19 08:20:06 51°13.598 2°56.091 -999 -999 -999 -999 -999
2007-03-19 08:20:11 51°13.599 2°56.088 -999 -999 -999 -999 -999
2007-03-19 08:20:16 51°13.6 2°56.084 -999 -999 -999 -999 -999
2007-03-19 08:20:21 51°13.601 2°56.079 -999 -999 -999 -999 -999
2007-03-19 08:20:26 51°13.602 2°56.074 -999 -999 -999 -999 -999
2007-03-19 08:20:31 51°13.604 2°56.068 -999 -999 -999 -999 -999
2007-03-19 08:20:36 51°13.606 2°56.061 -999 -999 -999 -999 -999
2007-03-19 08:20:41 51°13.608 2°56.054 -999 -999 -999 -999 -999
2007-03-19 08:20:46 51°13.61 2°56.046 -999 -999 -999 -999 -999
2007-03-19 08:20:52 51°13.614 2°56.037 -999 -999 -999 -999 -999
2007-03-19 08:20:56 51°13.616 2°56.03 -999 -999 -999 -999 -999
2007-03-19 08:21:01 51°13.619 2°56.022 -999 -999 -999 -999 -999
2007-03-19 08:21:06 51°13.622 2°56.014 -999 -999 -999 -999 -999
2007-03-19 08:21:11 51°13.625 2°56.007 -999 -999 -999 -999 -999
2007-03-19 08:21:17 51°13.628 2°55.999 -999 -999 -999 -999 -999
2007-03-19 08:21:21 51°13.63 2°55.994 -999 -999 -999 -999 -999
2007-03-19 08:21:26 51°13.632 2°55.989 -999 -999 -999 -999 -999
2007-03-19 08:21:31 51°13.635 2°55.985 -999 -999 -999 -999 -999
2007-03-19 08:21:36 51°13.638 2°55.98 -999 -999 -999 -999 -999
2007-03-19 08:21:41 51°13.64 2°55.974 -999 -999 -999 -999 -999
2007-03-19 08:21:46 51°13.643 2°55.969 -999 -999 -999 -999 -999
2007-03-19 08:21:51 51°13.645 2°55.963 -999 -999 -999 -999 -999
2007-03-19 08:21:56 51°13.648 2°55.956 -999 -999 -999 -999 -999
2007-03-19 08:22:01 51°13.65 2°55.949 -999 -999 -999 -999 -999
2007-03-19 08:22:06 51°13.653 2°55.941 -999 -999 -999 -999 -999
2007-03-19 08:22:11 51°13.656 2°55.933 -999 -999 -999 -999 -999
2007-03-19 08:22:16 51°13.659 2°55.924 -999 -999 -999 -999 -999
2007-03-19 08:22:21 51°13.662 2°55.916 -999 -999 -999 -999 -999
2007-03-19 08:22:26 51°13.666 2°55.907 -999 -999 -999 -999 -999
2007-03-19 08:22:31 51°13.67 2°55.897 -999 -999 -999 -999 -999
2007-03-19 08:22:36 51°13.673 2°55.888 -999 -999 -999 -999 -999
2007-03-19 08:22:41 51°13.677 2°55.878 -999 -999 -999 -999 -999
2007-03-19 08:22:47 51°13.681 2°55.866 -999 -999 -999 -999 -999
2007-03-19 08:22:51 51°13.684 2°55.858 -999 -999 -999 -999 -999
2007-03-19 08:22:56 51°13.688 2°55.848 -999 -999 -999 -999 -999
2007-03-19 08:23:01 51°13.692 2°55.838 -999 -999 -999 -999 -999
2007-03-19 08:23:06 51°13.696 2°55.829 -999 -999 -999 -999 -999
2007-03-19 08:23:11 51°13.7 2°55.819 -999 -999 -999 -999 -999
2007-03-19 08:23:16 51°13.703 2°55.809 -999 -999 -999 -999 -999
2007-03-19 08:23:21 51°13.707 2°55.8 -999 -999 -999 -999 -999
2007-03-19 08:23:26 51°13.71 2°55.791 -999 -999 -999 -999 -999
2007-03-19 08:23:31 51°13.713 2°55.781 -999 -999 -999 -999 -999
2007-03-19 08:23:37 51°13.716 2°55.771 -999 -999 -999 -999 -999
2007-03-19 08:23:41 51°13.718 2°55.764 -999 -999 -999 -999 -999
2007-03-19 08:23:46 51°13.72 2°55.755 -999 -999 -999 -999 -999
2007-03-19 08:23:51 51°13.722 2°55.746 -999 -999 -999 -999 -999
2007-03-19 08:23:56 51°13.724 2°55.738 -999 -999 -999 -999 -999
2007-03-19 08:24:01 51°13.726 2°55.731 -999 -999 -999 -999 -999
2007-03-19 08:24:06 51°13.727 2°55.724 -999 -999 -999 -999 -999
2007-03-19 08:24:11 51°13.728 2°55.718 -999 -999 -999 -999 -999
2007-03-19 08:24:16 51°13.729 2°55.713 -999 -999 -999 -999 -999
2007-03-19 08:24:21 51°13.729 2°55.712 -999 -999 -999 -999 -999
2007-03-19 08:24:26 51°13.73 2°55.712 -999 -999 -999 -999 -999
2007-03-19 08:24:31 51°13.73 2°55.714 -999 -999 -999 -999 -999
2007-03-19 08:24:36 51°13.73 2°55.717 -999 -999 -999 -999 -999
2007-03-19 08:24:41 51°13.73 2°55.721 -999 -999 -999 -999 -999
2007-03-19 08:24:46 51°13.731 2°55.725 -999 -999 -999 -999 -999
2007-03-19 08:24:51 51°13.731 2°55.727 -999 -999 -999 -999 -999
2007-03-19 08:24:56 51°13.731 2°55.729 -999 -999 -999 -999 -999
2007-03-19 08:25:01 51°13.731 2°55.729 -999 -999 -999 -999 -999
2007-03-19 08:25:06 51°13.731 2°55.729 -999 -999 -999 -999 -999
2007-03-19 08:25:11 51°13.73 2°55.727 -999 -999 -999 -999 -999
2007-03-19 08:25:16 51°13.729 2°55.724 -999 -999 -999 -999 -999
2007-03-19 08:25:21 51°13.728 2°55.721 -999 -999 -999 -999 -999
2007-03-19 08:25:26 51°13.727 2°55.718 -999 -999 -999 -999 -999
2007-03-19 08:25:32 51°13.726 2°55.715 -999 -999 -999 -999 -999
2007-03-19 08:25:36 51°13.725 2°55.713 -999 -999 -999 -999 -999
2007-03-19 08:25:41 51°13.725 2°55.713 -999 -999 -999 -999 -999
2007-03-19 08:25:46 51°13.725 2°55.713 -999 -999 -999 -999 -999
2007-03-19 08:25:51 51°13.726 2°55.714 -999 -999 -999 -999 -999
2007-03-19 08:25:56 51°13.727 2°55.717 -999 -999 -999 -999 -999
2007-03-19 08:26:01 51°13.729 2°55.72 -999 -999 -999 -999 -999
2007-03-19 08:26:06 51°13.731 2°55.723 -999 -999 -999 -999 -999
2007-03-19 08:26:11 51°13.733 2°55.725 -999 -999 -999 -999 -999
2007-03-19 08:26:16 51°13.734 2°55.727 -999 -999 -999 -999 -999
2007-03-19 08:26:21 51°13.735 2°55.729 -999 -999 -999 -999 -999
2007-03-19 08:26:26 51°13.735 2°55.729 -999 -999 -999 -999 -999
2007-03-19 08:26:31 51°13.735 2°55.729 -999 -999 -999 -999 -999
2007-03-19 08:26:36 51°13.734 2°55.729 -999 -999 -999 -999 -999
2007-03-19 08:26:41 51°13.732 2°55.727 -999 -999 -999 -999 -999
2007-03-19 08:26:46 51°13.73 2°55.726 -999 -999 -999 -999 -999
2007-03-19 08:26:51 51°13.728 2°55.724 -999 -999 -999 -999 -999
2007-03-19 08:26:56 51°13.726 2°55.722 -999 -999 -999 -999 -999
2007-03-19 08:27:01 51°13.725 2°55.721 -999 -999 -999 -999 -999
2007-03-19 08:27:06 51°13.723 2°55.719 -999 -999 -999 -999 -999
2007-03-19 08:27:11 51°13.721 2°55.718 -999 -999 -999 -999 -999
2007-03-19 08:27:16 51°13.721 2°55.718 -999 -999 -999 -999 -999
2007-03-19 08:27:21 51°13.72 2°55.717 -999 -999 -999 -999 -999
2007-03-19 08:27:26 51°13.721 2°55.718 -999 -999 -999 -999 -999
2007-03-19 08:27:32 51°13.722 2°55.718 -999 -999 -999 -999 -999
2007-03-19 08:27:36 51°13.722 2°55.719 -999 -999 -999 -999 -999
2007-03-19 08:27:41 51°13.724 2°55.719 -999 -999 -999 -999 -999
2007-03-19 08:27:46 51°13.726 2°55.719 -999 -999 -999 -999 -999
2007-03-19 08:27:51 51°13.729 2°55.72 -999 -999 -999 -999 -999
2007-03-19 08:27:56 51°13.731 2°55.719 -999 -999 -999 -999 -999
2007-03-19 08:28:01 51°13.734 2°55.719 -999 -999 -999 -999 -999
2007-03-19 08:28:06 51°13.737 2°55.717 -999 -999 -999 -999 -999
2007-03-19 08:28:11 51°13.74 2°55.716 -999 -999 -999 -999 -999
2007-03-19 08:28:16 51°13.743 2°55.713 -999 -999 -999 -999 -999
2007-03-19 08:28:21 51°13.746 2°55.71 -999 -999 -999 -999 -999
2007-03-19 08:28:26 51°13.749 2°55.706 -999 -999 -999 -999 -999
2007-03-19 08:28:31 51°13.753 2°55.702 -999 -999 -999 -999 -999
2007-03-19 08:28:36 51°13.757 2°55.697 -999 -999 -999 -999 -999
2007-03-19 08:28:41 51°13.762 2°55.692 -999 -999 -999 -999 -999
2007-03-19 08:28:46 51°13.766 2°55.686 -999 -999 -999 -999 -999
2007-03-19 08:28:51 51°13.772 2°55.681 -999 -999 -999 -999 -999
2007-03-19 08:28:56 51°13.777 2°55.675 -999 -999 -999 -999 -999
2007-03-19 08:29:01 51°13.783 2°55.668 -999 -999 -999 -999 -999
2007-03-19 08:29:06 51°13.79 2°55.662 -999 -999 -999 -999 -999
2007-03-19 08:29:11 51°13.797 2°55.656 -999 -999 -999 -999 -999
2007-03-19 08:29:16 51°13.805 2°55.649 -999 -999 -999 -999 -999
2007-03-19 08:29:21 51°13.812 2°55.643 -999 -999 -999 -999 -999
2007-03-19 08:29:26 51°13.821 2°55.637 -999 -999 -999 -999 -999
2007-03-19 08:29:31 51°13.83 2°55.63 -999 -999 -999 -999 -999
2007-03-19 08:29:36 51°13.839 2°55.623 -999 -999 -999 -999 -999
2007-03-19 08:29:41 51°13.849 2°55.617 -999 -999 -999 -999 -999
2007-03-19 08:29:46 51°13.858 2°55.61 -999 -999 -999 -999 -999
2007-03-19 08:29:51 51°13.869 2°55.603 -999 -999 -999 -999 -999
2007-03-19 08:29:56 51°13.879 2°55.596 -999 -999 -999 -999 -999
2007-03-19 08:30:01 51°13.89 2°55.588 -999 -999 -999 -999 -999
2007-03-19 08:30:06 51°13.901 2°55.581 -999 -999 -999 -999 -999
2007-03-19 08:30:11 51°13.912 2°55.572 -999 -999 -999 -999 -999
2007-03-19 08:30:16 51°13.923 2°55.564 -999 -999 -999 -999 -999
2007-03-19 08:30:21 51°13.934 2°55.556 -999 -999 -999 -999 -999
2007-03-19 08:30:26 51°13.946 2°55.549 -999 -999 -999 -999 -999
2007-03-19 08:30:31 51°13.957 2°55.541 -999 -999 -999 -999 -999
2007-03-19 08:30:36 51°13.969 2°55.533 -999 -999 -999 -999 -999
2007-03-19 08:30:41 51°13.98 2°55.526 -999 -999 -999 -999 -999
2007-03-19 08:30:46 51°13.992 2°55.518 -999 -999 -999 -999 -999
2007-03-19 08:30:51 51°14.004 2°55.51 -999 -999 -999 -999 -999
2007-03-19 08:30:56 51°14.016 2°55.502 -999 -999 -999 -999 -999
2007-03-19 08:31:01 51°14.028 2°55.494 -999 -999 -999 -999 -999
2007-03-19 08:31:06 51°14.04 2°55.486 -999 -999 -999 -999 -999
2007-03-19 08:31:11 51°14.051 2°55.478 -999 -999 -999 -999 -999
2007-03-19 08:31:16 51°14.063 2°55.47 -999 -999 -999 -999 -999
2007-03-19 08:31:21 51°14.075 2°55.461 -999 -999 -999 -999 -999
2007-03-19 08:31:26 51°14.086 2°55.453 -999 -999 -999 -999 -999
2007-03-19 08:31:31 51°14.098 2°55.445 -999 -999 -999 -999 -999
2007-03-19 08:31:36 51°14.109 2°55.436 -999 -999 -999 -999 -999
2007-03-19 08:31:41 51°14.121 2°55.428 -999 -999 -999 -999 -999
2007-03-19 08:31:46 51°14.132 2°55.419 -999 -999 -999 -999 -999
2007-03-19 08:31:51 51°14.143 2°55.41 -999 -999 -999 -999 -999
2007-03-19 08:31:56 51°14.154 2°55.4 -999 -999 -999 -999 -999
2007-03-19 08:32:01 51°14.164 2°55.39 -999 -999 -999 -999 -999
2007-03-19 08:32:06 51°14.175 2°55.38 -999 -999 -999 -999 -999
2007-03-19 08:32:11 51°14.184 2°55.368 -999 -999 -999 -999 -999
2007-03-19 08:32:16 51°14.194 2°55.357 -999 -999 -999 -999 -999
2007-03-19 08:32:21 51°14.204 2°55.346 -999 -999 -999 -999 -999
2007-03-19 08:32:26 51°14.214 2°55.334 -999 -999 -999 -999 -999
2007-03-19 08:32:31 51°14.223 2°55.322 -999 -999 -999 -999 -999
2007-03-19 08:32:36 51°14.232 2°55.309 -999 -999 -999 -999 -999
2007-03-19 08:32:41 51°14.242 2°55.297 -999 -999 -999 -999 -999
2007-03-19 08:32:46 51°14.251 2°55.283 -999 -999 -999 -999 -999
2007-03-19 08:32:51 51°14.26 2°55.269 -999 -999 -999 -999 -999
2007-03-19 08:32:56 51°14.268 2°55.255 -999 -999 -999 -999 -999
2007-03-19 08:33:01 51°14.277 2°55.24 -999 -999 -999 -999 -999
2007-03-19 08:33:06 51°14.285 2°55.225 -999 -999 -999 -999 -999
2007-03-19 08:33:11 51°14.293 2°55.209 -999 -999 -999 -999 -999
2007-03-19 08:33:16 51°14.302 2°55.193 -999 -999 -999 -999 -999
2007-03-19 08:33:21 51°14.31 2°55.177 -999 -999 -999 -999 -999
2007-03-19 08:33:26 51°14.319 2°55.161 -999 -999 -999 -999 -999
2007-03-19 08:33:31 51°14.327 2°55.144 -999 -999 -999 -999 -999
2007-03-19 08:33:36 51°14.336 2°55.127 -999 -999 -999 -999 -999
2007-03-19 08:33:41 51°14.345 2°55.11 -999 -999 -999 -999 -999
2007-03-19 08:33:46 51°14.354 2°55.092 -999 -999 -999 -999 -999
2007-03-19 08:33:51 51°14.362 2°55.074 -999 -999 -999 -999 -999
2007-03-19 08:33:56 51°14.371 2°55.056 -999 -999 -999 -999 -999
2007-03-19 08:34:01 51°14.38 2°55.038 -999 -999 -999 -999 -999
2007-03-19 08:34:06 51°14.388 2°55.02 -999 -999 -999 -999 -999
2007-03-19 08:34:11 51°14.396 2°55.001 -999 -999 -999 -999 -999
2007-03-19 08:34:16 51°14.404 2°54.982 -999 -999 -999 -999 -999
2007-03-19 08:34:21 51°14.412 2°54.963 -999 -999 -999 -999 -999
2007-03-19 08:34:26 51°14.42 2°54.944 -999 -999 -999 -999 -999
2007-03-19 08:34:31 51°14.428 2°54.924 -999 -999 -999 -999 -999
2007-03-19 08:34:36 51°14.436 2°54.904 -999 -999 -999 -999 -999
2007-03-19 08:34:41 51°14.443 2°54.884 -999 -999 -999 -999 -999
2007-03-19 08:34:46 51°14.449 2°54.862 -999 -999 -999 -999 -999
2007-03-19 08:34:51 51°14.455 2°54.84 -999 -999 -999 -999 -999
2007-03-19 08:34:56 51°14.458 2°54.817 -999 -999 -999 -999 -999
2007-03-19 08:35:01 51°14.46 2°54.794 -999 -999 -999 -999 -999
2007-03-19 08:35:06 51°14.46 2°54.77 -999 -999 -999 -999 -999
2007-03-19 08:35:11 51°14.459 2°54.746 -999 -999 -999 -999 -999
2007-03-19 08:35:16 51°14.456 2°54.723 -999 -999 -999 -999 -999
2007-03-19 08:35:21 51°14.454 2°54.699 -999 -999 -999 -999 -999
2007-03-19 08:35:26 51°14.45 2°54.674 -999 -999 -999 -999 -999
2007-03-19 08:35:31 51°14.447 2°54.65 -999 -999 -999 -999 -999
2007-03-19 08:35:36 51°14.442 2°54.626 -999 -999 -999 -999 -999
2007-03-19 08:35:41 51°14.439 2°54.602 -999 -999 -999 -999 -999
2007-03-19 08:35:46 51°14.435 2°54.577 -999 -999 -999 -999 -999
2007-03-19 08:35:51 51°14.43 2°54.552 -999 -999 -999 -999 -999
2007-03-19 08:35:56 51°14.423 2°54.527 -999 -999 -999 -999 -999
2007-03-19 08:36:01 51°14.417 2°54.502 -999 -999 -999 -999 -999
2007-03-19 08:36:06 51°14.41 2°54.477 -999 -999 -999 -999 -999
2007-03-19 08:36:11 51°14.403 2°54.452 -999 -999 -999 -999 -999
2007-03-19 08:36:16 51°14.396 2°54.428 -999 -999 -999 -999 -999
2007-03-19 08:36:21 51°14.387 2°54.404 -999 -999 -999 -999 -999
2007-03-19 08:36:26 51°14.378 2°54.38 -999 -999 -999 -999 -999
2007-03-19 08:36:31 51°14.37 2°54.356 -999 -999 -999 -999 -999
2007-03-19 08:36:36 51°14.361 2°54.332 -999 -999 -999 -999 -999
2007-03-19 08:36:41 51°14.351 2°54.308 -999 -999 -999 -999 -999
2007-03-19 08:36:46 51°14.343 2°54.282 -999 -999 -999 -999 -999
2007-03-19 08:36:51 51°14.334 2°54.259 -999 -999 -999 -999 -999
2007-03-19 08:36:56 51°14.325 2°54.234 -999 -999 -999 -999 -999
2007-03-19 08:37:01 51°14.316 2°54.21 -999 -999 -999 -999 -999
2007-03-19 08:37:06 51°14.308 2°54.185 -999 -999 -999 -999 -999
2007-03-19 08:37:11 51°14.298 2°54.161 -999 -999 -999 -999 -999
2007-03-19 08:37:16 51°14.29 2°54.135 -999 -999 -999 -999 -999
2007-03-19 08:37:21 51°14.281 2°54.111 -999 -999 -999 -999 -999
2007-03-19 08:37:26 51°14.273 2°54.086 -999 -999 -999 -999 -999
2007-03-19 08:37:31 51°14.264 2°54.061 -999 -999 -999 -999 -999
2007-03-19 08:37:36 51°14.255 2°54.036 -999 -999 -999 -999 -999
2007-03-19 08:37:41 51°14.247 2°54.011 -999 -999 -999 -999 -999
2007-03-19 08:37:46 51°14.237 2°53.987 -999 -999 -999 -999 -999
2007-03-19 08:37:51 51°14.229 2°53.961 -999 -999 -999 -999 -999
2007-03-19 08:37:56 51°14.22 2°53.936 -999 -999 -999 -999 -999
2007-03-19 08:38:01 51°14.211 2°53.911 -999 -999 -999 -999 -999
2007-03-19 08:38:06 51°14.203 2°53.886 -999 -999 -999 -999 -999
2007-03-19 08:38:11 51°14.194 2°53.861 -999 -999 -999 -999 -999
2007-03-19 08:38:16 51°14.185 2°53.835 -999 -999 -999 -999 -999
2007-03-19 08:38:21 51°14.176 2°53.811 -999 -999 -999 -999 -999
2007-03-19 08:38:26 51°14.167 2°53.785 -999 -999 -999 -999 -999
2007-03-19 08:38:31 51°14.158 2°53.76 -999 -999 -999 -999 -999
2007-03-19 08:38:36 51°14.148 2°53.736 -999 -999 -999 -999 -999
2007-03-19 08:38:41 51°14.139 2°53.711 -999 -999 -999 -999 -999
2007-03-19 08:38:46 51°14.129 2°53.686 -999 -999 -999 -999 -999
2007-03-19 08:38:52 51°14.118 2°53.656 -999 -999 -999 -999 -999
2007-03-19 08:38:55 51°14.113 2°53.641 -999 -999 -999 -999 -999
2007-03-19 08:39:02 51°14.1 2°53.606 -999 -999 -999 -999 -999
2007-03-19 08:39:07 51°14.091 2°53.58 -999 -999 -999 -999 -999
2007-03-19 08:39:11 51°14.084 2°53.56 -999 -999 -999 -999 -999
2007-03-19 08:39:17 51°14.072 2°53.53 -999 -999 -999 -999 -999
2007-03-19 08:39:22 51°14.064 2°53.505 -999 -999 -999 -999 -999
2007-03-19 08:39:26 51°14.056 2°53.486 -999 -999 -999 -999 -999
2007-03-19 08:39:31 51°14.047 2°53.46 -999 -999 -999 -999 -999
2007-03-19 08:39:36 51°14.038 2°53.434 -999 -999 -999 -999 -999
2007-03-19 08:39:42 51°14.027 2°53.405 -999 -999 -999 -999 -999
2007-03-19 08:39:46 51°14.019 2°53.384 -999 -999 -999 -999 -999
2007-03-19 08:39:51 51°14.01 2°53.36 -999 -999 -999 -999 -999
2007-03-19 08:39:56 51°14.001 2°53.334 -999 -999 -999 -999 -999
2007-03-19 08:40:02 51°13.99 2°53.304 -999 -999 -999 -999 -999
2007-03-19 08:40:07 51°13.981 2°53.278 -999 -999 -999 -999 -999
2007-03-19 08:40:11 51°13.974 2°53.259 -999 -999 -999 -999 -999
2007-03-19 08:40:16 51°13.965 2°53.234 -999 -999 -999 -999 -999
2007-03-19 08:40:22 51°13.954 2°53.204 -999 -999 -999 -999 -999
2007-03-19 08:40:27 51°13.944 2°53.179 -999 -999 -999 -999 -999
2007-03-19 08:40:32 51°13.936 2°53.154 -999 -999 -999 -999 -999
2007-03-19 08:40:36 51°13.928 2°53.135 -999 -999 -999 -999 -999
2007-03-19 08:40:42 51°13.916 2°53.105 -999 -999 -999 -999 -999
2007-03-19 08:40:46 51°13.909 2°53.085 -999 -999 -999 -999 -999
2007-03-19 08:40:51 51°13.901 2°53.06 -999 -999 -999 -999 -999
2007-03-19 08:40:56 51°13.891 2°53.035 -999 -999 -999 -999 -999
2007-03-19 08:41:02 51°13.88 2°53.004 -999 -999 -999 -999 -999
2007-03-19 08:41:06 51°13.873 2°52.984 -999 -999 -999 -999 -999
2007-03-19 08:41:12 51°13.862 2°52.954 -999 -999 -999 -999 -999
2007-03-19 08:41:16 51°13.854 2°52.934 -999 -999 -999 -999 -999
2007-03-19 08:41:22 51°13.843 2°52.904 -999 -999 -999 -999 -999
2007-03-19 08:41:26 51°13.836 2°52.884 -999 -999 -999 -999 -999
2007-03-19 08:41:32 51°13.824 2°52.853 -999 -999 -999 -999 -999
2007-03-19 08:41:37 51°13.816 2°52.827 -999 -999 -999 -999 -999
2007-03-19 08:41:42 51°13.806 2°52.803 -999 -999 -999 -999 -999
2007-03-19 08:41:46 51°13.8 2°52.782 -999 -999 -999 -999 -999
2007-03-19 08:41:51 51°13.79 2°52.757 -999 -999 -999 -999 -999
2007-03-19 08:41:57 51°13.78 2°52.725 -999 -999 -999 -999 -999
2007-03-19 08:42:02 51°13.77 2°52.701 -999 -999 -999 -999 -999
2007-03-19 08:42:07 51°13.761 2°52.675 -999 -999 -999 -999 -999
2007-03-19 08:42:11 51°13.753 2°52.656 -999 -999 -999 -999 -999
2007-03-19 08:42:16 51°13.744 2°52.63 -999 -999 -999 -999 -999
2007-03-19 08:42:22 51°13.734 2°52.599 -999 -999 -999 -999 -999
2007-03-19 08:42:27 51°13.724 2°52.575 -999 -999 -999 -999 -999
2007-03-19 08:42:32 51°13.715 2°52.55 -999 -999 -999 -999 -999
2007-03-19 08:42:36 51°13.707 2°52.529 -999 -999 -999 -999 -999
2007-03-19 08:42:42 51°13.696 2°52.499 -999 -999 -999 -999 -999
2007-03-19 08:42:47 51°13.687 2°52.474 -999 -999 -999 -999 -999
2007-03-19 08:42:51 51°13.68 2°52.453 -999 -999 -999 -999 -999
2007-03-19 08:42:56 51°13.671 2°52.428 -999 -999 -999 -999 -999
2007-03-19 08:43:02 51°13.659 2°52.398 -999 -999 -999 -999 -999
2007-03-19 08:43:07 51°13.651 2°52.372 -999 -999 -999 -999 -999
2007-03-19 08:43:12 51°13.641 2°52.347 -999 -999 -999 -999 -999
2007-03-19 08:43:16 51°13.634 2°52.326 -999 -999 -999 -999 -999
2007-03-19 08:43:22 51°13.623 2°52.296 -999 -999 -999 -999 -999
2007-03-19 08:43:26 51°13.616 2°52.276 -999 -999 -999 -999 -999
2007-03-19 08:43:32 51°13.604 2°52.247 -999 -999 -999 -999 -999
2007-03-19 08:43:37 51°13.594 2°52.223 -999 -999 -999 -999 -999
2007-03-19 08:43:42 51°13.585 2°52.198 -999 -999 -999 -999 -999
2007-03-19 08:43:46 51°13.578 2°52.178 -999 -999 -999 -999 -999
2007-03-19 08:43:52 51°13.567 2°52.148 -999 -999 -999 -999 -999
2007-03-19 08:43:57 51°13.558 2°52.122 -999 -999 -999 -999 -999
2007-03-19 08:44:02 51°13.549 2°52.098 -999 -999 -999 -999 -999
2007-03-19 08:44:06 51°13.542 2°52.078 -999 -999 -999 -999 -999
2007-03-19 08:44:11 51°13.533 2°52.053 -999 -999 -999 -999 -999
2007-03-19 08:44:16 51°13.523 2°52.028 -999 -999 -999 -999 -999
2007-03-19 08:44:22 51°13.512 2°51.998 -999 -999 -999 -999 -999
2007-03-19 08:44:27 51°13.503 2°51.973 -999 -999 -999 -999 -999
2007-03-19 08:44:31 51°13.496 2°51.953 -999 -999 -999 -999 -999
2007-03-19 08:44:36 51°13.487 2°51.928 -999 -999 -999 -999 -999
2007-03-19 08:44:42 51°13.476 2°51.897 -999 -999 -999 -999 -999
2007-03-19 08:44:47 51°13.466 2°51.872 -999 -999 -999 -999 -999
2007-03-19 08:44:51 51°13.458 2°51.852 -999 -999 -999 -999 -999
2007-03-19 08:44:56 51°13.45 2°51.827 -999 -999 -999 -999 -999
2007-03-19 08:45:02 51°13.439 2°51.797 -999 -999 -999 -999 -999
2007-03-19 08:45:07 51°13.43 2°51.771 -999 -999 -999 -999 -999
2007-03-19 08:45:11 51°13.421 2°51.751 -999 -999 -999 -999 -999
2007-03-19 08:45:16 51°13.413 2°51.725 -999 -999 -999 -999 -999
2007-03-19 08:45:22 51°13.401 2°51.696 -999 -999 -999 -999 -999
2007-03-19 08:45:27 51°13.393 2°51.671 -999 -999 -999 -999 -999
2007-03-19 08:45:32 51°13.383 2°51.646 -999 -999 -999 -999 -999
2007-03-19 08:45:36 51°13.376 2°51.626 -999 -999 -999 -999 -999
2007-03-19 08:45:42 51°13.364 2°51.597 -999 -999 -999 -999 -999
2007-03-19 08:45:46 51°13.358 2°51.576 -999 -999 -999 -999 -999
2007-03-19 08:45:52 51°13.346 2°51.547 -999 -999 -999 -999 -999
2007-03-19 08:45:57 51°13.337 2°51.522 -999 -999 -999 -999 -999
2007-03-19 08:46:02 51°13.328 2°51.497 -999 -999 -999 -999 -999
2007-03-19 08:46:06 51°13.321 2°51.477 -999 -999 -999 -999 -999
2007-03-19 08:46:11 51°13.311 2°51.452 -999 -999 -999 -999 -999
2007-03-19 08:46:17 51°13.3 2°51.422 -999 -999 -999 -999 -999
2007-03-19 08:46:22 51°13.291 2°51.397 -999 -999 -999 -999 -999
2007-03-19 08:46:27 51°13.282 2°51.371 -999 -999 -999 -999 -999
2007-03-19 08:46:31 51°13.274 2°51.352 -999 -999 -999 -999 -999
2007-03-19 08:46:37 51°13.263 2°51.321 -999 -999 -999 -999 -999
2007-03-19 08:46:42 51°13.254 2°51.297 -999 -999 -999 -999 -999
2007-03-19 08:46:47 51°13.245 2°51.272 -999 -999 -999 -999 -999
2007-03-19 08:46:51 51°13.237 2°51.252 -999 -999 -999 -999 -999
2007-03-19 08:46:56 51°13.228 2°51.227 -999 -999 -999 -999 -999
2007-03-19 08:47:02 51°13.217 2°51.197 -999 -999 -999 -999 -999
2007-03-19 08:47:07 51°13.208 2°51.172 -999 -999 -999 -999 -999
2007-03-19 08:47:11 51°13.201 2°51.153 -999 -999 -999 -999 -999
2007-03-19 08:47:16 51°13.192 2°51.127 -999 -999 -999 -999 -999
2007-03-19 08:47:22 51°13.181 2°51.097 -999 -999 -999 -999 -999
2007-03-19 08:47:27 51°13.17 2°51.074 -999 -999 -999 -999 -999
2007-03-19 08:47:32 51°13.163 2°51.048 -999 -999 -999 -999 -999
2007-03-19 08:47:36 51°13.155 2°51.029 -999 -999 -999 -999 -999
2007-03-19 08:47:42 51°13.144 2°50.998 -999 -999 -999 -999 -999
2007-03-19 08:47:46 51°13.137 2°50.979 -999 -999 -999 -999 -999
2007-03-19 08:47:52 51°13.126 2°50.949 -999 -999 -999 -999 -999
2007-03-19 08:47:57 51°13.117 2°50.924 -999 -999 -999 -999 -999
2007-03-19 08:48:02 51°13.107 2°50.9 -999 -999 -999 -999 -999
2007-03-19 08:48:06 51°13.101 2°50.879 -999 -999 -999 -999 -999
2007-03-19 08:48:12 51°13.089 2°50.85 -999 -999 -999 -999 -999
2007-03-19 08:48:17 51°13.081 2°50.825 -999 -999 -999 -999 -999
2007-03-19 08:48:22 51°13.071 2°50.801 -999 -999 -999 -999 -999
2007-03-19 08:48:27 51°13.063 2°50.775 -999 -999 -999 -999 -999
2007-03-19 08:48:31 51°13.056 2°50.756 -999 -999 -999 -999 -999
2007-03-19 08:48:36 51°13.047 2°50.731 -999 -999 -999 -999 -999
2007-03-19 08:48:42 51°13.036 2°50.701 -999 -999 -999 -999 -999
2007-03-19 08:48:47 51°13.027 2°50.677 -999 -999 -999 -999 -999
2007-03-19 08:48:51 51°13.02 2°50.656 -999 -999 -999 -999 -999
2007-03-19 08:48:57 51°13.009 2°50.627 -999 -999 -999 -999 -999
2007-03-19 08:49:02 51°13 2°50.602 -999 -999 -999 -999 -999
2007-03-19 08:49:07 51°12.991 2°50.577 -999 -999 -999 -999 -999
2007-03-19 08:49:11 51°12.983 2°50.558 -999 -999 -999 -999 -999
2007-03-19 08:49:16 51°12.974 2°50.533 -999 -999 -999 -999 -999
2007-03-19 08:49:22 51°12.963 2°50.503 -999 -999 -999 -999 -999
2007-03-19 08:49:27 51°12.954 2°50.479 -999 -999 -999 -999 -999
2007-03-19 08:49:31 51°12.947 2°50.459 -999 -999 -999 -999 -999
2007-03-19 08:49:36 51°12.937 2°50.435 -999 -999 -999 -999 -999
2007-03-19 08:49:41 51°12.928 2°50.411 -999 -999 -999 -999 -999
2007-03-19 08:49:47 51°12.917 2°50.381 -999 -999 -999 -999 -999
2007-03-19 08:49:52 51°12.909 2°50.357 -999 -999 -999 -999 -999
2007-03-19 08:49:56 51°12.901 2°50.337 -999 -999 -999 -999 -999
2007-03-19 08:50:02 51°12.891 2°50.307 -999 -999 -999 -999 -999
2007-03-19 08:50:06 51°12.884 2°50.287 -999 -999 -999 -999 -999
2007-03-19 08:50:12 51°12.873 2°50.258 -999 -999 -999 -999 -999
2007-03-19 08:50:17 51°12.864 2°50.233 -999 -999 -999 -999 -999
2007-03-19 08:50:22 51°12.855 2°50.209 -999 -999 -999 -999 -999
2007-03-19 08:50:26 51°12.848 2°50.189 -999 -999 -999 -999 -999
2007-03-19 08:50:32 51°12.836 2°50.16 -999 -999 -999 -999 -999
2007-03-19 08:50:36 51°12.83 2°50.139 -999 -999 -999 -999 -999
2007-03-19 08:50:42 51°12.819 2°50.11 -999 -999 -999 -999 -999
2007-03-19 08:50:47 51°12.81 2°50.085 -999 -999 -999 -999 -999
2007-03-19 08:50:51 51°12.804 2°50.065 -999 -999 -999 -999 -999
2007-03-19 08:50:57 51°12.793 2°50.036 -999 -999 -999 -999 -999
2007-03-19 08:51:02 51°12.784 2°50.011 -999 -999 -999 -999 -999
2007-03-19 08:51:07 51°12.776 2°49.986 -999 -999 -999 -999 -999
2007-03-19 08:51:11 51°12.768 2°49.966 -999 -999 -999 -999 -999
2007-03-19 08:51:16 51°12.76 2°49.941 -999 -999 -999 -999 -999
2007-03-19 08:51:22 51°12.749 2°49.911 -999 -999 -999 -999 -999
2007-03-19 08:51:27 51°12.74 2°49.886 -999 -999 -999 -999 -999
2007-03-19 08:51:31 51°12.733 2°49.866 -999 -999 -999 -999 -999
2007-03-19 08:51:36 51°12.724 2°49.842 -999 -999 -999 -999 -999
2007-03-19 08:51:42 51°12.714 2°49.813 -999 -999 -999 -999 -999
2007-03-19 08:51:47 51°12.705 2°49.788 -999 -999 -999 -999 -999
2007-03-19 08:51:52 51°12.696 2°49.764 -999 -999 -999 -999 -999
2007-03-19 08:51:56 51°12.689 2°49.744 -999 -999 -999 -999 -999
2007-03-19 08:52:02 51°12.679 2°49.714 -999 -999 -999 -999 -999
2007-03-19 08:52:07 51°12.67 2°49.69 -999 -999 -999 -999 -999
2007-03-19 08:52:12 51°12.661 2°49.665 -999 -999 -999 -999 -999
2007-03-19 08:52:17 51°12.653 2°49.64 -999 -999 -999 -999 -999
2007-03-19 08:52:22 51°12.644 2°49.616 -999 -999 -999 -999 -999
2007-03-19 08:52:27 51°12.635 2°49.591 -999 -999 -999 -999 -999
2007-03-19 08:52:32 51°12.626 2°49.566 -999 -999 -999 -999 -999
2007-03-19 08:52:36 51°12.619 2°49.546 -999 -999 -999 -999 -999
2007-03-19 08:52:42 51°12.609 2°49.517 -999 -999 -999 -999 -999
2007-03-19 08:52:47 51°12.6 2°49.492 -999 -999 -999 -999 -999
2007-03-19 08:52:51 51°12.592 2°49.473 -999 -999 -999 -999 -999
2007-03-19 08:52:57 51°12.583 2°49.442 -999 -999 -999 -999 -999
2007-03-19 08:53:02 51°12.573 2°49.417 -999 -999 -999 -999 -999
2007-03-19 08:53:07 51°12.564 2°49.393 -999 -999 -999 -999 -999
2007-03-19 08:53:11 51°12.557 2°49.373 -999 -999 -999 -999 -999
2007-03-19 08:53:17 51°12.546 2°49.343 -999 -999 -999 -999 -999
2007-03-19 08:53:22 51°12.537 2°49.319 -999 -999 -999 -999 -999
2007-03-19 08:53:26 51°12.53 2°49.299 -999 -999 -999 -999 -999
2007-03-19 08:53:31 51°12.521 2°49.275 -999 -999 -999 -999 -999
2007-03-19 08:53:36 51°12.512 2°49.251 -999 -999 -999 -999 -999
2007-03-19 08:53:42 51°12.502 2°49.221 -999 -999 -999 -999 -999
2007-03-19 08:53:47 51°12.492 2°49.197 -999 -999 -999 -999 -999
2007-03-19 08:53:51 51°12.486 2°49.178 -999 -999 -999 -999 -999
2007-03-19 08:53:56 51°12.477 2°49.154 -999 -999 -999 -999 -999
2007-03-19 08:54:02 51°12.466 2°49.125 -999 -999 -999 -999 -999
2007-03-19 08:54:07 51°12.457 2°49.1 -999 -999 -999 -999 -999
2007-03-19 08:54:12 51°12.449 2°49.076 -999 -999 -999 -999 -999
2007-03-19 08:54:16 51°12.442 2°49.056 -999 -999 -999 -999 -999
2007-03-19 08:54:22 51°12.431 2°49.026 -999 -999 -999 -999 -999
2007-03-19 08:54:27 51°12.423 2°49.002 -999 -999 -999 -999 -999
2007-03-19 08:54:32 51°12.415 2°48.978 -999 -999 -999 -999 -999
2007-03-19 08:54:36 51°12.409 2°48.957 -999 -999 -999 -999 -999
2007-03-19 08:54:42 51°12.399 2°48.927 -999 -999 -999 -999 -999
2007-03-19 08:54:46 51°12.392 2°48.907 -999 -999 -999 -999 -999
2007-03-19 08:54:52 51°12.383 2°48.876 -999 -999 -999 -999 -999
2007-03-19 08:54:56 51°12.376 2°48.857 -999 -999 -999 -999 -999
2007-03-19 08:55:02 51°12.366 2°48.826 -999 -999 -999 -999 -999
2007-03-19 08:55:07 51°12.357 2°48.801 -999 -999 -999 -999 -999
2007-03-19 08:55:11 51°12.351 2°48.78 -999 -999 -999 -999 -999
2007-03-19 08:55:17 51°12.341 2°48.75 -999 -999 -999 -999 -999
2007-03-19 08:55:22 51°12.333 2°48.725 -999 -999 -999 -999 -999
2007-03-19 08:55:26 51°12.326 2°48.705 -999 -999 -999 -999 -999
2007-03-19 08:55:31 51°12.318 2°48.679 -999 -999 -999 -999 -999
2007-03-19 08:55:36 51°12.31 2°48.654 -999 -999 -999 -999 -999
2007-03-19 08:55:42 51°12.3 2°48.624 -999 -999 -999 -999 -999
2007-03-19 08:55:47 51°12.292 2°48.599 -999 -999 -999 -999 -999
2007-03-19 08:55:51 51°12.285 2°48.579 -999 -999 -999 -999 -999
2007-03-19 08:55:56 51°12.277 2°48.554 -999 -999 -999 -999 -999
2007-03-19 08:56:02 51°12.267 2°48.524 -999 -999 -999 -999 -999
2007-03-19 08:56:07 51°12.259 2°48.498 -999 -999 -999 -999 -999
2007-03-19 08:56:12 51°12.25 2°48.473 -999 -999 -999 -999 -999
2007-03-19 08:56:16 51°12.244 2°48.453 -999 -999 -999 -999 -999
2007-03-19 08:56:22 51°12.234 2°48.423 -999 -999 -999 -999 -999
2007-03-19 08:56:27 51°12.226 2°48.397 -999 -999 -999 -999 -999
2007-03-19 08:56:32 51°12.219 2°48.371 -999 -999 -999 -999 -999
2007-03-19 08:56:36 51°12.213 2°48.35 -999 -999 -999 -999 -999
2007-03-19 08:56:42 51°12.205 2°48.319 -999 -999 -999 -999 -999
2007-03-19 08:56:46 51°12.199 2°48.298 -999 -999 -999 -999 -999
2007-03-19 08:56:52 51°12.191 2°48.267 -999 -999 -999 -999 -999
2007-03-19 08:56:56 51°12.186 2°48.246 -999 -999 -999 -999 -999
2007-03-19 08:57:02 51°12.177 2°48.214 -999 -999 -999 -999 -999
2007-03-19 08:57:07 51°12.171 2°48.188 -999 -999 -999 -999 -999
2007-03-19 08:57:11 51°12.165 2°48.167 -999 -999 -999 -999 -999
2007-03-19 08:57:17 51°12.157 2°48.135 -999 -999 -999 -999 -999
2007-03-19 08:57:22 51°12.151 2°48.108 -999 -999 -999 -999 -999
2007-03-19 08:57:26 51°12.145 2°48.087 -999 -999 -999 -999 -999
2007-03-19 08:57:31 51°12.138 2°48.061 -999 -999 -999 -999 -999
2007-03-19 08:57:37 51°12.132 2°48.029 -999 -999 -999 -999 -999
2007-03-19 08:57:42 51°12.125 2°48.002 -999 -999 -999 -999 -999
2007-03-19 08:57:47 51°12.121 2°47.975 -999 -999 -999 -999 -999
2007-03-19 08:57:51 51°12.117 2°47.953 -999 -999 -999 -999 -999
2007-03-19 08:57:56 51°12.112 2°47.926 -999 -999 -999 -999 -999
2007-03-19 08:58:02 51°12.106 2°47.893 -999 -999 -999 -999 -999
2007-03-19 08:58:07 51°12.102 2°47.866 -999 -999 -999 -999 -999
2007-03-19 08:58:12 51°12.097 2°47.84 -999 -999 -999 -999 -999
2007-03-19 08:58:16 51°12.093 2°47.818 -999 -999 -999 -999 -999
2007-03-19 08:58:22 51°12.087 2°47.786 -999 -999 -999 -999 -999
2007-03-19 08:58:27 51°12.083 2°47.76 -999 -999 -999 -999 -999
2007-03-19 08:58:32 51°12.078 2°47.734 -999 -999 -999 -999 -999
2007-03-19 08:58:36 51°12.074 2°47.712 -999 -999 -999 -999 -999
2007-03-19 08:58:42 51°12.068 2°47.681 -999 -999 -999 -999 -999
2007-03-19 08:58:47 51°12.063 2°47.654 -999 -999 -999 -999 -999
2007-03-19 08:58:51 51°12.059 2°47.632 -999 -999 -999 -999 -999
2007-03-19 08:58:56 51°12.055 2°47.605 -999 -999 -999 -999 -999
2007-03-19 08:59:02 51°12.05 2°47.573 -999 -999 -999 -999 -999
2007-03-19 08:59:06 51°12.047 2°47.551 -999 -999 -999 -999 -999
2007-03-19 08:59:12 51°12.041 2°47.518 -999 -999 -999 -999 -999
2007-03-19 08:59:16 51°12.039 2°47.496 -999 -999 -999 -999 -999
2007-03-19 08:59:22 51°12.033 2°47.464 -999 -999 -999 -999 -999
2007-03-19 08:59:26 51°12.03 2°47.442 -999 -999 -999 -999 -999
2007-03-19 08:59:32 51°12.024 2°47.409 -999 -999 -999 -999 -999
2007-03-19 08:59:37 51°12.02 2°47.382 -999 -999 -999 -999 -999
2007-03-19 08:59:42 51°12.015 2°47.356 -999 -999 -999 -999 -999
2007-03-19 08:59:46 51°12.011 2°47.335 -999 -999 -999 -999 -999
2007-03-19 08:59:51 51°12.008 2°47.308 -999 -999 -999 -999 -999
2007-03-19 08:59:57 51°12.002 2°47.276 -999 -999 -999 -999 -999
2007-03-19 09:00:02 51°11.997 2°47.249 -999 -999 -999 -999 -999
2007-03-19 09:00:07 51°11.993 2°47.222 -999 -999 -999 -999 -999
2007-03-19 09:00:11 51°11.989 2°47.201 -999 -999 -999 -999 -999
2007-03-19 09:00:17 51°11.984 2°47.168 -999 -999 -999 -999 -999
2007-03-19 09:00:22 51°11.98 2°47.142 -999 -999 -999 -999 -999
2007-03-19 09:00:27 51°11.975 2°47.115 -999 -999 -999 -999 -999
2007-03-19 09:00:32 51°11.971 2°47.088 -999 -999 -999 -999 -999
2007-03-19 09:00:36 51°11.967 2°47.067 -999 -999 -999 -999 -999
2007-03-19 09:00:42 51°11.962 2°47.036 -999 -999 -999 -999 -999
2007-03-19 09:00:47 51°11.957 2°47.009 -999 -999 -999 -999 -999
2007-03-19 09:00:51 51°11.954 2°46.987 -999 -999 -999 -999 -999
2007-03-19 09:00:56 51°11.949 2°46.96 -999 -999 -999 -999 -999
2007-03-19 09:01:02 51°11.944 2°46.928 -999 -999 -999 -999 -999
2007-03-19 09:01:07 51°11.94 2°46.901 -999 -999 -999 -999 -999
2007-03-19 09:01:12 51°11.936 2°46.874 -999 -999 -999 -999 -999
2007-03-19 09:01:16 51°11.931 2°46.853 -999 -999 -999 -999 -999
2007-03-19 09:01:22 51°11.925 2°46.821 -999 -999 -999 -999 -999
2007-03-19 09:01:27 51°11.921 2°46.794 -999 -999 -999 -999 -999
2007-03-19 09:01:32 51°11.916 2°46.767 -999 -999 -999 -999 -999
2007-03-19 09:01:37 51°11.912 2°46.741 -999 -999 -999 -999 -999
2007-03-19 09:01:42 51°11.907 2°46.714 -999 -999 -999 -999 -999
2007-03-19 09:01:46 51°11.904 2°46.693 -999 -999 -999 -999 -999
2007-03-19 09:01:52 51°11.898 2°46.661 -999 -999 -999 -999 -999
2007-03-19 09:01:57 51°11.894 2°46.634 -999 -999 -999 -999 -999
2007-03-19 09:02:02 51°11.889 2°46.607 -999 -999 -999 -999 -999
2007-03-19 09:02:07 51°11.885 2°46.579 -999 -999 -999 -999 -999
2007-03-19 09:02:11 51°11.881 2°46.558 -999 -999 -999 -999 -999
2007-03-19 09:02:17 51°11.875 2°46.525 -999 -999 -999 -999 -999
2007-03-19 09:02:22 51°11.871 2°46.498 -999 -999 -999 -999 -999
2007-03-19 09:02:27 51°11.866 2°46.47 -999 -999 -999 -999 -999
2007-03-19 09:02:31 51°11.863 2°46.449 -999 -999 -999 -999 -999
2007-03-19 09:02:37 51°11.858 2°46.416 -999 -999 -999 -999 -999
2007-03-19 09:02:42 51°11.853 2°46.389 -999 -999 -999 -999 -999
2007-03-19 09:02:47 51°11.849 2°46.361 -999 -999 -999 -999 -999
2007-03-19 09:02:51 51°11.845 2°46.34 -999 -999 -999 -999 -999
2007-03-19 09:02:56 51°11.841 2°46.313 -999 -999 -999 -999 -999
2007-03-19 09:03:01 51°11.836 2°46.286 -999 -999 -999 -999 -999
2007-03-19 09:03:07 51°11.831 2°46.253 -999 -999 -999 -999 -999
2007-03-19 09:03:11 51°11.828 2°46.232 -999 -999 -999 -999 -999
2007-03-19 09:03:16 51°11.823 2°46.205 -999 -999 -999 -999 -999
2007-03-19 09:03:22 51°11.818 2°46.172 -999 -999 -999 -999 -999
2007-03-19 09:03:27 51°11.814 2°46.145 -999 -999 -999 -999 -999
2007-03-19 09:03:32 51°11.81 2°46.117 -999 -999 -999 -999 -999
2007-03-19 09:03:36 51°11.807 2°46.096 -999 -999 -999 -999 -999
2007-03-19 09:03:42 51°11.802 2°46.062 -999 -999 -999 -999 -999
2007-03-19 09:03:47 51°11.8 2°46.035 -999 -999 -999 -999 -999
2007-03-19 09:03:52 51°11.795 2°46.008 -999 -999 -999 -999 -999
2007-03-19 09:03:57 51°11.792 2°45.98 -999 -999 -999 -999 -999
2007-03-19 09:04:02 51°11.788 2°45.953 -999 -999 -999 -999 -999
2007-03-19 09:04:06 51°11.786 2°45.93 -999 -999 -999 -999 -999
2007-03-19 09:04:12 51°11.781 2°45.898 -999 -999 -999 -999 -999
2007-03-19 09:04:17 51°11.777 2°45.871 -999 -999 -999 -999 -999
2007-03-19 09:04:22 51°11.773 2°45.844 -999 -999 -999 -999 -999
2007-03-19 09:04:26 51°11.77 2°45.823 -999 -999 -999 -999 -999
2007-03-19 09:04:31 51°11.767 2°45.796 -999 -999 -999 -999 -999
2007-03-19 09:04:37 51°11.763 2°45.764 -999 -999 -999 -999 -999
2007-03-19 09:04:42 51°11.76 2°45.736 -999 -999 -999 -999 -999
2007-03-19 09:04:47 51°11.756 2°45.71 -999 -999 -999 -999 -999
2007-03-19 09:04:51 51°11.753 2°45.688 -999 -999 -999 -999 -999
2007-03-19 09:04:56 51°11.749 2°45.662 -999 -999 -999 -999 -999
2007-03-19 09:05:02 51°11.745 2°45.629 -999 -999 -999 -999 -999
2007-03-19 09:05:07 51°11.742 2°45.603 -999 -999 -999 -999 -999
2007-03-19 09:05:12 51°11.737 2°45.576 -999 -999 -999 -999 -999
2007-03-19 09:05:16 51°11.735 2°45.555 -999 -999 -999 -999 -999
2007-03-19 09:05:22 51°11.73 2°45.523 -999 -999 -999 -999 -999
2007-03-19 09:05:27 51°11.727 2°45.496 -999 -999 -999 -999 -999
2007-03-19 09:05:32 51°11.723 2°45.469 -999 -999 -999 -999 -999
2007-03-19 09:05:37 51°11.72 2°45.443 -999 -999 -999 -999 -999
2007-03-19 09:05:42 51°11.716 2°45.416 -999 -999 -999 -999 -999
2007-03-19 09:05:47 51°11.712 2°45.389 -999 -999 -999 -999 -999
2007-03-19 09:05:52 51°11.71 2°45.362 -999 -999 -999 -999 -999
2007-03-19 09:05:56 51°11.706 2°45.341 -999 -999 -999 -999 -999
2007-03-19 09:06:02 51°11.703 2°45.308 -999 -999 -999 -999 -999
2007-03-19 09:06:07 51°11.699 2°45.282 -999 -999 -999 -999 -999
2007-03-19 09:06:12 51°11.695 2°45.255 -999 -999 -999 -999 -999
2007-03-19 09:06:17 51°11.692 2°45.228 -999 -999 -999 -999 -999
2007-03-19 09:06:22 51°11.688 2°45.202 -999 -999 -999 -999 -999
2007-03-19 09:06:26 51°11.685 2°45.18 -999 -999 -999 -999 -999
2007-03-19 09:06:32 51°11.683 2°45.148 -999 -999 -999 -999 -999
2007-03-19 09:06:37 51°11.68 2°45.121 -999 -999 -999 -999 -999
2007-03-19 09:06:42 51°11.678 2°45.094 -999 -999 -999 -999 -999
2007-03-19 09:06:46 51°11.676 2°45.072 -999 -999 -999 -999 -999
2007-03-19 09:06:51 51°11.673 2°45.045 -999 -999 -999 -999 -999
2007-03-19 09:06:57 51°11.671 2°45.013 -999 -999 -999 -999 -999
2007-03-19 09:07:02 51°11.668 2°44.986 -999 -999 -999 -999 -999
2007-03-19 09:07:07 51°11.666 2°44.959 -999 -999 -999 -999 -999
2007-03-19 09:07:11 51°11.665 2°44.938 -999 -999 -999 -999 -999
2007-03-19 09:07:16 51°11.663 2°44.911 -999 -999 -999 -999 -999
2007-03-19 09:07:22 51°11.663 2°44.879 -999 -999 -999 -999 -999
2007-03-19 09:07:27 51°11.661 2°44.852 -999 -999 -999 -999 -999
2007-03-19 09:07:32 51°11.661 2°44.825 -999 -999 -999 -999 -999
2007-03-19 09:07:36 51°11.66 2°44.804 -999 -999 -999 -999 -999
2007-03-19 09:07:42 51°11.659 2°44.771 -999 -999 -999 -999 -999
2007-03-19 09:07:47 51°11.659 2°44.745 -999 -999 -999 -999 -999
2007-03-19 09:07:52 51°11.657 2°44.718 -999 -999 -999 -999 -999
2007-03-19 09:07:56 51°11.658 2°44.696 -999 -999 -999 -999 -999
2007-03-19 09:08:02 51°11.656 2°44.664 -999 -999 -999 -999 -999
2007-03-19 09:08:07 51°11.656 2°44.637 -999 -999 -999 -999 -999
2007-03-19 09:08:12 51°11.655 2°44.611 -999 -999 -999 -999 -999
2007-03-19 09:08:16 51°11.654 2°44.589 -999 -999 -999 -999 -999
2007-03-19 09:08:22 51°11.653 2°44.558 -999 -999 -999 -999 -999
2007-03-19 09:08:26 51°11.652 2°44.537 -999 -999 -999 -999 -999
2007-03-19 09:08:32 51°11.65 2°44.506 -999 -999 -999 -999 -999
2007-03-19 09:08:36 51°11.65 2°44.486 -999 -999 -999 -999 -999
2007-03-19 09:08:42 51°11.648 2°44.454 -999 -999 -999 -999 -999
2007-03-19 09:08:47 51°11.648 2°44.427 -999 -999 -999 -999 -999
2007-03-19 09:08:52 51°11.646 2°44.402 -999 -999 -999 -999 -999
2007-03-19 09:08:57 51°11.645 2°44.375 -999 -999 -999 -999 -999
2007-03-19 09:09:02 51°11.644 2°44.349 -999 -999 -999 -999 -999
2007-03-19 09:09:06 51°11.643 2°44.329 -999 -999 -999 -999 -999
2007-03-19 09:09:11 51°11.642 2°44.302 -999 -999 -999 -999 -999
2007-03-19 09:09:16 51°11.641 2°44.277 -999 -999 -999 -999 -999
2007-03-19 09:09:22 51°11.64 2°44.246 -999 -999 -999 -999 -999
2007-03-19 09:09:27 51°11.639 2°44.22 -999 -999 -999 -999 -999
2007-03-19 09:09:31 51°11.638 2°44.2 -999 -999 -999 -999 -999
2007-03-19 09:09:36 51°11.637 2°44.174 -999 -999 -999 -999 -999
2007-03-19 09:09:42 51°11.636 2°44.142 -999 -999 -999 -999 -999
2007-03-19 09:09:47 51°11.634 2°44.116 -999 -999 -999 -999 -999
2007-03-19 09:09:52 51°11.634 2°44.09 -999 -999 -999 -999 -999
2007-03-19 09:09:56 51°11.633 2°44.07 -999 -999 -999 -999 -999
2007-03-19 09:10:02 51°11.632 2°44.037 -999 -999 -999 -999 -999
2007-03-19 09:10:07 51°11.631 2°44.012 -999 -999 -999 -999 -999
2007-03-19 09:10:12 51°11.63 2°43.986 -999 -999 -999 -999 -999
2007-03-19 09:10:16 51°11.629 2°43.964 -999 -999 -999 -999 -999
2007-03-19 09:10:22 51°11.628 2°43.932 -999 -999 -999 -999 -999
2007-03-19 09:10:26 51°11.627 2°43.911 -999 -999 -999 -999 -999
2007-03-19 09:10:32 51°11.626 2°43.88 -999 -999 -999 -999 -999
2007-03-19 09:10:36 51°11.625 2°43.858 -999 -999 -999 -999 -999
2007-03-19 09:10:42 51°11.624 2°43.826 -999 -999 -999 -999 -999
2007-03-19 09:10:47 51°11.624 2°43.799 -999 -999 -999 -999 -999
2007-03-19 09:10:52 51°11.623 2°43.773 -999 -999 -999 -999 -999
2007-03-19 09:10:57 51°11.622 2°43.746 -999 -999 -999 -999 -999
2007-03-19 09:11:02 51°11.621 2°43.719 -999 -999 -999 -999 -999
2007-03-19 09:11:06 51°11.62 2°43.697 -999 -999 -999 -999 -999
2007-03-19 09:11:11 51°11.619 2°43.671 -999 -999 -999 -999 -999
2007-03-19 09:11:17 51°11.619 2°43.639 -999 -999 -999 -999 -999
2007-03-19 09:11:22 51°11.618 2°43.612 -999 -999 -999 -999 -999
2007-03-19 09:11:26 51°11.617 2°43.591 -999 -999 -999 -999 -999
2007-03-19 09:11:31 51°11.616 2°43.564 -999 -999 -999 -999 -999
2007-03-19 09:11:37 51°11.615 2°43.532 -999 -999 -999 -999 -999
2007-03-19 09:11:42 51°11.614 2°43.505 -999 -999 -999 -999 -999
2007-03-19 09:11:47 51°11.613 2°43.479 -999 -999 -999 -999 -999
2007-03-19 09:11:51 51°11.612 2°43.458 -999 -999 -999 -999 -999
2007-03-19 09:11:56 51°11.611 2°43.431 -999 -999 -999 -999 -999
2007-03-19 09:12:02 51°11.61 2°43.399 -999 -999 -999 -999 -999
2007-03-19 09:12:07 51°11.609 2°43.373 -999 -999 -999 -999 -999
2007-03-19 09:12:12 51°11.608 2°43.346 -999 -999 -999 -999 -999
2007-03-19 09:12:16 51°11.607 2°43.325 -999 -999 -999 -999 -999
2007-03-19 09:12:22 51°11.605 2°43.294 -999 -999 -999 -999 -999
2007-03-19 09:12:27 51°11.604 2°43.267 -999 -999 -999 -999 -999
2007-03-19 09:12:31 51°11.603 2°43.246 -999 -999 -999 -999 -999
2007-03-19 09:12:36 51°11.602 2°43.22 -999 -999 -999 -999 -999
2007-03-19 09:12:42 51°11.601 2°43.188 -999 -999 -999 -999 -999
2007-03-19 09:12:47 51°11.599 2°43.162 -999 -999 -999 -999 -999
2007-03-19 09:12:52 51°11.598 2°43.136 -999 -999 -999 -999 -999
2007-03-19 09:12:56 51°11.597 2°43.115 -999 -999 -999 -999 -999
2007-03-19 09:13:02 51°11.595 2°43.083 -999 -999 -999 -999 -999
2007-03-19 09:13:06 51°11.593 2°43.062 -999 -999 -999 -999 -999
2007-03-19 09:13:11 51°11.591 2°43.035 -999 -999 -999 -999 -999
2007-03-19 09:13:17 51°11.588 2°43.004 -999 -999 -999 -999 -999
2007-03-19 09:13:22 51°11.585 2°42.977 -999 -999 -999 -999 -999
2007-03-19 09:13:26 51°11.583 2°42.957 -999 -999 -999 -999 -999
2007-03-19 09:13:31 51°11.58 2°42.93 -999 -999 -999 -999 -999
2007-03-19 09:13:37 51°11.576 2°42.899 -999 -999 -999 -999 -999
2007-03-19 09:13:42 51°11.573 2°42.872 -999 -999 -999 -999 -999
2007-03-19 09:13:47 51°11.57 2°42.846 -999 -999 -999 -999 -999
2007-03-19 09:13:51 51°11.568 2°42.825 -999 -999 -999 -999 -999
2007-03-19 09:13:56 51°11.565 2°42.798 -999 -999 -999 -999 -999
2007-03-19 09:14:02 51°11.561 2°42.767 -999 -999 -999 -999 -999
2007-03-19 09:14:07 51°11.558 2°42.741 -999 -999 -999 -999 -999
2007-03-19 09:14:12 51°11.554 2°42.714 -999 -999 -999 -999 -999
2007-03-19 09:14:16 51°11.552 2°42.693 -999 -999 -999 -999 -999
2007-03-19 09:14:22 51°11.548 2°42.662 -999 -999 -999 -999 -999
2007-03-19 09:14:27 51°11.544 2°42.636 -999 -999 -999 -999 -999
2007-03-19 09:14:31 51°11.541 2°42.615 -999 -999 -999 -999 -999
2007-03-19 09:14:36 51°11.537 2°42.59 -999 -999 -999 -999 -999
2007-03-19 09:14:42 51°11.531 2°42.558 -999 -999 -999 -999 -999
2007-03-19 09:14:47 51°11.526 2°42.533 -999 -999 -999 -999 -999
2007-03-19 09:14:52 51°11.521 2°42.507 -999 -999 -999 -999 -999
2007-03-19 09:14:56 51°11.515 2°42.486 -999 -999 -999 -999 -999
2007-03-19 09:15:02 51°11.508 2°42.458 -999 -999 -999 -999 -999
2007-03-19 09:15:07 51°11.502 2°42.433 -999 -999 -999 -999 -999
2007-03-19 09:15:12 51°11.497 2°42.408 -999 -999 -999 -999 -999
2007-03-19 09:15:17 51°11.491 2°42.384 -999 -999 -999 -999 -999
2007-03-19 09:15:22 51°11.485 2°42.36 -999 -999 -999 -999 -999
2007-03-19 09:15:27 51°11.478 2°42.335 -999 -999 -999 -999 -999
2007-03-19 09:15:32 51°11.472 2°42.31 -999 -999 -999 -999 -999
2007-03-19 09:15:37 51°11.465 2°42.286 -999 -999 -999 -999 -999
2007-03-19 09:15:42 51°11.458 2°42.261 -999 -999 -999 -999 -999
2007-03-19 09:15:47 51°11.451 2°42.236 -999 -999 -999 -999 -999
2007-03-19 09:15:51 51°11.445 2°42.216 -999 -999 -999 -999 -999
2007-03-19 09:15:57 51°11.435 2°42.188 -999 -999 -999 -999 -999
2007-03-19 09:16:02 51°11.427 2°42.163 -999 -999 -999 -999 -999
2007-03-19 09:16:07 51°11.418 2°42.139 -999 -999 -999 -999 -999
2007-03-19 09:16:11 51°11.412 2°42.12 -999 -999 -999 -999 -999
2007-03-19 09:16:16 51°11.403 2°42.097 -999 -999 -999 -999 -999
2007-03-19 09:16:22 51°11.392 2°42.068 -999 -999 -999 -999 -999
2007-03-19 09:16:27 51°11.384 2°42.043 -999 -999 -999 -999 -999
2007-03-19 09:16:32 51°11.375 2°42.02 -999 -999 -999 -999 -999
2007-03-19 09:16:36 51°11.369 2°42 -999 -999 -999 -999 -999
2007-03-19 09:16:42 51°11.358 2°41.971 -999 -999 -999 -999 -999
2007-03-19 09:16:47 51°11.349 2°41.948 -999 -999 -999 -999 -999
2007-03-19 09:16:52 51°11.34 2°41.924 -999 -999 -999 -999 -999
2007-03-19 09:16:57 51°11.331 2°41.901 -999 -999 -999 -999 -999
2007-03-19 09:17:02 51°11.322 2°41.878 -999 -999 -999 -999 -999
2007-03-19 09:17:07 51°11.313 2°41.854 -999 -999 -999 -999 -999
2007-03-19 09:17:12 51°11.304 2°41.831 -999 -999 -999 -999 -999
2007-03-19 09:17:17 51°11.296 2°41.806 -999 -999 -999 -999 -999
2007-03-19 09:17:22 51°11.286 2°41.783 -999 -999 -999 -999 -999
2007-03-19 09:17:26 51°11.28 2°41.764 -999 -999 -999 -999 -999
2007-03-19 09:17:32 51°11.269 2°41.736 -999 -999 -999 -999 -999
2007-03-19 09:17:36 51°11.262 2°41.717 -999 -999 -999 -999 -999
2007-03-19 09:17:42 51°11.252 2°41.688 -999 -999 -999 -999 -999
2007-03-19 09:17:47 51°11.243 2°41.664 -999 -999 -999 -999 -999
2007-03-19 09:17:52 51°11.234 2°41.64 -999 -999 -999 -999 -999
2007-03-19 09:17:57 51°11.225 2°41.617 -999 -999 -999 -999 -999
2007-03-19 09:18:02 51°11.216 2°41.593 -999 -999 -999 -999 -999
2007-03-19 09:18:06 51°11.209 2°41.575 -999 -999 -999 -999 -999
2007-03-19 09:18:11 51°11.201 2°41.55 -999 -999 -999 -999 -999
2007-03-19 09:18:17 51°11.19 2°41.522 -999 -999 -999 -999 -999
2007-03-19 09:18:22 51°11.181 2°41.499 -999 -999 -999 -999 -999
2007-03-19 09:18:27 51°11.173 2°41.475 -999 -999 -999 -999 -999
2007-03-19 09:18:31 51°11.166 2°41.457 -999 -999 -999 -999 -999
2007-03-19 09:18:36 51°11.157 2°41.434 -999 -999 -999 -999 -999
2007-03-19 09:18:42 51°11.145 2°41.406 -999 -999 -999 -999 -999
2007-03-19 09:18:47 51°11.135 2°41.384 -999 -999 -999 -999 -999
2007-03-19 09:18:52 51°11.126 2°41.361 -999 -999 -999 -999 -999
2007-03-19 09:18:56 51°11.119 2°41.342 -999 -999 -999 -999 -999
2007-03-19 09:19:02 51°11.106 2°41.316 -999 -999 -999 -999 -999
2007-03-19 09:19:07 51°11.097 2°41.292 -999 -999 -999 -999 -999
2007-03-19 09:19:12 51°11.087 2°41.27 -999 -999 -999 -999 -999
2007-03-19 09:19:17 51°11.077 2°41.247 -999 -999 -999 -999 -999
2007-03-19 09:19:22 51°11.067 2°41.224 -999 -999 -999 -999 -999
2007-03-19 09:19:27 51°11.057 2°41.202 -999 -999 -999 -999 -999
2007-03-19 09:19:32 51°11.047 2°41.179 -999 -999 -999 -999 -999
2007-03-19 09:19:36 51°11.039 2°41.161 -999 -999 -999 -999 -999
2007-03-19 09:19:42 51°11.027 2°41.133 -999 -999 -999 -999 -999
2007-03-19 09:19:47 51°11.017 2°41.111 -999 -999 -999 -999 -999
2007-03-19 09:19:52 51°11.006 2°41.088 -999 -999 -999 -999 -999
2007-03-19 09:19:57 51°10.997 2°41.065 -999 -999 -999 -999 -999
2007-03-19 09:20:02 51°10.986 2°41.042 -999 -999 -999 -999 -999
2007-03-19 09:20:06 51°10.979 2°41.023 -999 -999 -999 -999 -999
2007-03-19 09:20:12 51°10.967 2°40.996 -999 -999 -999 -999 -999
2007-03-19 09:20:17 51°10.957 2°40.973 -999 -999 -999 -999 -999
2007-03-19 09:20:22 51°10.946 2°40.95 -999 -999 -999 -999 -999
2007-03-19 09:20:27 51°10.936 2°40.927 -999 -999 -999 -999 -999
2007-03-19 09:20:31 51°10.928 2°40.909 -999 -999 -999 -999 -999
2007-03-19 09:20:37 51°10.917 2°40.882 -999 -999 -999 -999 -999
2007-03-19 09:20:42 51°10.907 2°40.859 -999 -999 -999 -999 -999
2007-03-19 09:20:47 51°10.896 2°40.836 -999 -999 -999 -999 -999
2007-03-19 09:20:52 51°10.886 2°40.813 -999 -999 -999 -999 -999
2007-03-19 09:20:56 51°10.878 2°40.795 -999 -999 -999 -999 -999
2007-03-19 09:21:02 51°10.866 2°40.767 -999 -999 -999 -999 -999
2007-03-19 09:21:07 51°10.856 2°40.744 -999 -999 -999 -999 -999
2007-03-19 09:21:12 51°10.847 2°40.72 -999 -999 -999 -999 -999
2007-03-19 09:21:17 51°10.836 2°40.698 -999 -999 -999 -999 -999
2007-03-19 09:21:22 51°10.826 2°40.674 -999 -999 -999 -999 -999
2007-03-19 09:21:27 51°10.817 2°40.65 -999 -999 -999 -999 -999
2007-03-19 09:21:32 51°10.806 2°40.627 -999 -999 -999 -999 -999
2007-03-19 09:21:36 51°10.799 2°40.609 -999 -999 -999 -999 -999
2007-03-19 09:21:42 51°10.787 2°40.582 -999 -999 -999 -999 -999
2007-03-19 09:21:47 51°10.778 2°40.558 -999 -999 -999 -999 -999
2007-03-19 09:21:52 51°10.767 2°40.537 -999 -999 -999 -999 -999
2007-03-19 09:21:56 51°10.759 2°40.518 -999 -999 -999 -999 -999
2007-03-19 09:22:02 51°10.747 2°40.491 -999 -999 -999 -999 -999
2007-03-19 09:22:07 51°10.737 2°40.469 -999 -999 -999 -999 -999
2007-03-19 09:22:12 51°10.728 2°40.446 -999 -999 -999 -999 -999
2007-03-19 09:22:17 51°10.718 2°40.424 -999 -999 -999 -999 -999
2007-03-19 09:22:22 51°10.708 2°40.401 -999 -999 -999 -999 -999
2007-03-19 09:22:26 51°10.701 2°40.383 -999 -999 -999 -999 -999
2007-03-19 09:22:32 51°10.688 2°40.356 -999 -999 -999 -999 -999
2007-03-19 09:22:37 51°10.679 2°40.333 -999 -999 -999 -999 -999
2007-03-19 09:22:42 51°10.669 2°40.31 -999 -999 -999 -999 -999
2007-03-19 09:22:47 51°10.661 2°40.286 -999 -999 -999 -999 -999
2007-03-19 09:22:51 51°10.651 2°40.269 -999 -999 -999 -999 -999
2007-03-19 09:22:57 51°10.64 2°40.241 -999 -999 -999 -999 -999
2007-03-19 09:23:02 51°10.63 2°40.218 -999 -999 -999 -999 -999
2007-03-19 09:23:07 51°10.62 2°40.196 -999 -999 -999 -999 -999
2007-03-19 09:23:12 51°10.611 2°40.173 -999 -999 -999 -999 -999
2007-03-19 09:23:17 51°10.601 2°40.151 -999 -999 -999 -999 -999
2007-03-19 09:23:22 51°10.591 2°40.127 -999 -999 -999 -999 -999
2007-03-19 09:23:27 51°10.582 2°40.103 -999 -999 -999 -999 -999
2007-03-19 09:23:32 51°10.572 2°40.08 -999 -999 -999 -999 -999
2007-03-19 09:23:37 51°10.563 2°40.057 -999 -999 -999 -999 -999
2007-03-19 09:23:42 51°10.553 2°40.033 -999 -999 -999 -999 -999
2007-03-19 09:23:47 51°10.543 2°40.01 -999 -999 -999 -999 -999
2007-03-19 09:23:52 51°10.533 2°39.986 -999 -999 -999 -999 -999
2007-03-19 09:23:56 51°10.524 2°39.968 -999 -999 -999 -999 -999
2007-03-19 09:24:02 51°10.514 2°39.941 -999 -999 -999 -999 -999
2007-03-19 09:24:07 51°10.504 2°39.918 -999 -999 -999 -999 -999
2007-03-19 09:24:12 51°10.494 2°39.895 -999 -999 -999 -999 -999
2007-03-19 09:24:16 51°10.487 2°39.876 -999 -999 -999 -999 -999
2007-03-19 09:24:22 51°10.475 2°39.849 -999 -999 -999 -999 -999
2007-03-19 09:24:27 51°10.465 2°39.826 -999 -999 -999 -999 -999
2007-03-19 09:24:32 51°10.455 2°39.802 -999 -999 -999 -999 -999
2007-03-19 09:24:37 51°10.446 2°39.779 -999 -999 -999 -999 -999
2007-03-19 09:24:42 51°10.436 2°39.755 -999 -999 -999 -999 -999
2007-03-19 09:24:46 51°10.428 2°39.737 -999 -999 -999 -999 -999
2007-03-19 09:24:52 51°10.416 2°39.708 -999 -999 -999 -999 -999
2007-03-19 09:24:57 51°10.406 2°39.686 -999 -999 -999 -999 -999
2007-03-19 09:25:02 51°10.397 2°39.662 -999 -999 -999 -999 -999
2007-03-19 09:25:07 51°10.386 2°39.639 -999 -999 -999 -999 -999
2007-03-19 09:25:11 51°10.378 2°39.62 -999 -999 -999 -999 -999
2007-03-19 09:25:17 51°10.366 2°39.593 -999 -999 -999 -999 -999
2007-03-19 09:25:22 51°10.357 2°39.568 -999 -999 -999 -999 -999
2007-03-19 09:25:27 51°10.347 2°39.545 -999 -999 -999 -999 -999
2007-03-19 09:25:32 51°10.337 2°39.522 -999 -999 -999 -999 -999
2007-03-19 09:25:36 51°10.329 2°39.503 -999 -999 -999 -999 -999
2007-03-19 09:25:42 51°10.317 2°39.477 -999 -999 -999 -999 -999
2007-03-19 09:25:47 51°10.307 2°39.454 -999 -999 -999 -999 -999
2007-03-19 09:25:52 51°10.297 2°39.431 -999 -999 -999 -999 -999
2007-03-19 09:25:56 51°10.289 2°39.413 -999 -999 -999 -999 -999
2007-03-19 09:26:02 51°10.278 2°39.385 -999 -999 -999 -999 -999
2007-03-19 09:26:07 51°10.268 2°39.362 -999 -999 -999 -999 -999
2007-03-19 09:26:12 51°10.258 2°39.34 -999 -999 -999 -999 -999
2007-03-19 09:26:17 51°10.249 2°39.316 -999 -999 -999 -999 -999
2007-03-19 09:26:22 51°10.239 2°39.293 -999 -999 -999 -999 -999
2007-03-19 09:26:27 51°10.23 2°39.27 -999 -999 -999 -999 -999
2007-03-19 09:26:32 51°10.219 2°39.248 -999 -999 -999 -999 -999
2007-03-19 09:26:36 51°10.212 2°39.228 -999 -999 -999 -999 -999
2007-03-19 09:26:42 51°10.2 2°39.2 -999 -999 -999 -999 -999
2007-03-19 09:26:47 51°10.19 2°39.177 -999 -999 -999 -999 -999
2007-03-19 09:26:52 51°10.181 2°39.154 -999 -999 -999 -999 -999
2007-03-19 09:26:57 51°10.171 2°39.13 -999 -999 -999 -999 -999
2007-03-19 09:27:02 51°10.161 2°39.107 -999 -999 -999 -999 -999
2007-03-19 09:27:06 51°10.153 2°39.088 -999 -999 -999 -999 -999
2007-03-19 09:27:11 51°10.144 2°39.065 -999 -999 -999 -999 -999
2007-03-19 09:27:17 51°10.133 2°39.036 -999 -999 -999 -999 -999
2007-03-19 09:27:22 51°10.122 2°39.012 -999 -999 -999 -999 -999
2007-03-19 09:27:27 51°10.113 2°38.989 -999 -999 -999 -999 -999
2007-03-19 09:27:31 51°10.105 2°38.97 -999 -999 -999 -999 -999
2007-03-19 09:27:37 51°10.094 2°38.942 -999 -999 -999 -999 -999
2007-03-19 09:27:42 51°10.083 2°38.919 -999 -999 -999 -999 -999
2007-03-19 09:27:47 51°10.073 2°38.896 -999 -999 -999 -999 -999
2007-03-19 09:27:52 51°10.063 2°38.873 -999 -999 -999 -999 -999
2007-03-19 09:27:56 51°10.055 2°38.855 -999 -999 -999 -999 -999
2007-03-19 09:28:02 51°10.043 2°38.828 -999 -999 -999 -999 -999
2007-03-19 09:28:07 51°10.032 2°38.806 -999 -999 -999 -999 -999
2007-03-19 09:28:12 51°10.023 2°38.783 -999 -999 -999 -999 -999
2007-03-19 09:28:17 51°10.012 2°38.761 -999 -999 -999 -999 -999
2007-03-19 09:28:22 51°10.003 2°38.738 -999 -999 -999 -999 -999
2007-03-19 09:28:27 51°9.992 2°38.716 -999 -999 -999 -999 -999
2007-03-19 09:28:32 51°9.983 2°38.694 -999 -999 -999 -999 -999
2007-03-19 09:28:37 51°9.972 2°38.672 -999 -999 -999 -999 -999
2007-03-19 09:28:42 51°9.962 2°38.65 -999 -999 -999 -999 -999
2007-03-19 09:28:47 51°9.952 2°38.627 -999 -999 -999 -999 -999
2007-03-19 09:28:52 51°9.942 2°38.604 -999 -999 -999 -999 -999
2007-03-19 09:28:57 51°9.932 2°38.581 -999 -999 -999 -999 -999
2007-03-19 09:29:02 51°9.922 2°38.558 -999 -999 -999 -999 -999
2007-03-19 09:29:07 51°9.912 2°38.535 -999 -999 -999 -999 -999
2007-03-19 09:29:12 51°9.902 2°38.512 -999 -999 -999 -999 -999
2007-03-19 09:29:17 51°9.892 2°38.488 -999 -999 -999 -999 -999
2007-03-19 09:29:22 51°9.881 2°38.466 -999 -999 -999 -999 -999
2007-03-19 09:29:26 51°9.873 2°38.448 -999 -999 -999 -999 -999
2007-03-19 09:29:32 51°9.861 2°38.421 -999 -999 -999 -999 -999
2007-03-19 09:29:37 51°9.851 2°38.398 -999 -999 -999 -999 -999
2007-03-19 09:29:42 51°9.84 2°38.375 -999 -999 -999 -999 -999
2007-03-19 09:29:47 51°9.831 2°38.352 -999 -999 -999 -999 -999
2007-03-19 09:29:51 51°9.822 2°38.335 -999 -999 -999 -999 -999
2007-03-19 09:29:56 51°9.811 2°38.312 -999 -999 -999 -999 -999
2007-03-19 09:30:02 51°9.8 2°38.285 -999 -999 -999 -999 -999
2007-03-19 09:30:07 51°9.789 2°38.263 -999 -999 -999 -999 -999
2007-03-19 09:30:12 51°9.78 2°38.241 -999 -999 -999 -999 -999
2007-03-19 09:30:16 51°9.771 2°38.223 -999 -999 -999 -999 -999
2007-03-19 09:30:22 51°9.759 2°38.196 -999 -999 -999 -999 -999
2007-03-19 09:30:27 51°9.749 2°38.173 -999 -999 -999 -999 -999
2007-03-19 09:30:32 51°9.739 2°38.15 -999 -999 -999 -999 -999
2007-03-19 09:30:37 51°9.729 2°38.128 -999 -999 -999 -999 -999
2007-03-19 09:30:42 51°9.718 2°38.105 -999 -999 -999 -999 -999
2007-03-19 09:30:47 51°9.708 2°38.082 -999 -999 -999 -999 -999
2007-03-19 09:30:52 51°9.696 2°38.061 -999 -999 -999 -999 -999
2007-03-19 09:30:56 51°9.688 2°38.043 -999 -999 -999 -999 -999
2007-03-19 09:31:02 51°9.674 2°38.017 -999 -999 -999 -999 -999
2007-03-19 09:31:07 51°9.663 2°37.996 -999 -999 -999 -999 -999
2007-03-19 09:31:12 51°9.651 2°37.975 -999 -999 -999 -999 -999
2007-03-19 09:31:17 51°9.639 2°37.955 -999 -999 -999 -999 -999
2007-03-19 09:31:22 51°9.627 2°37.934 -999 -999 -999 -999 -999
2007-03-19 09:31:26 51°9.617 2°37.917 -999 -999 -999 -999 -999
2007-03-19 09:31:32 51°9.602 2°37.893 -999 -999 -999 -999 -999
2007-03-19 09:31:37 51°9.59 2°37.871 -999 -999 -999 -999 -999
2007-03-19 09:31:42 51°9.577 2°37.853 -999 -999 -999 -999 -999
2007-03-19 09:31:47 51°9.566 2°37.831 -999 -999 -999 -999 -999
2007-03-19 09:31:51 51°9.555 2°37.815 -999 -999 -999 -999 -999
2007-03-19 09:31:57 51°9.541 2°37.79 -999 -999 -999 -999 -999
2007-03-19 09:32:02 51°9.529 2°37.77 -999 -999 -999 -999 -999
2007-03-19 09:32:07 51°9.517 2°37.749 -999 -999 -999 -999 -999
2007-03-19 09:32:12 51°9.505 2°37.727 -999 -999 -999 -999 -999
2007-03-19 09:32:17 51°9.494 2°37.707 -999 -999 -999 -999 -999
2007-03-19 09:32:22 51°9.482 2°37.686 -999 -999 -999 -999 -999
2007-03-19 09:32:27 51°9.47 2°37.664 -999 -999 -999 -999 -999
2007-03-19 09:32:32 51°9.458 2°37.643 -999 -999 -999 -999 -999
2007-03-19 09:32:37 51°9.446 2°37.624 -999 -999 -999 -999 -999
2007-03-19 09:32:42 51°9.434 2°37.603 -999 -999 -999 -999 -999
2007-03-19 09:32:47 51°9.423 2°37.582 -999 -999 -999 -999 -999
2007-03-19 09:32:52 51°9.412 2°37.563 -999 -999 -999 -999 -999
2007-03-19 09:32:56 51°9.404 2°37.55 -999 -999 -999 -999 -999
2007-03-19 09:33:02 51°9.391 2°37.528 -999 -999 -999 -999 -999
2007-03-19 09:33:07 51°9.381 2°37.511 -999 -999 -999 -999 -999
2007-03-19 09:33:12 51°9.371 2°37.494 -999 -999 -999 -999 -999
2007-03-19 09:33:17 51°9.362 2°37.478 -999 -999 -999 -999 -999
2007-03-19 09:33:22 51°9.354 2°37.462 -999 -999 -999 -999 -999
2007-03-19 09:33:26 51°9.347 2°37.45 -999 -999 -999 -999 -999
2007-03-19 09:33:32 51°9.338 2°37.432 -999 -999 -999 -999 -999
2007-03-19 09:33:37 51°9.331 2°37.419 -999 -999 -999 -999 -999
2007-03-19 09:33:42 51°9.324 2°37.406 -999 -999 -999 -999 -999
2007-03-19 09:33:46 51°9.318 2°37.396 -999 -999 -999 -999 -999
2007-03-19 09:33:52 51°9.31 2°37.382 -999 -999 -999 -999 -999
2007-03-19 09:33:57 51°9.303 2°37.371 -999 -999 -999 -999 -999
2007-03-19 09:34:02 51°9.297 2°37.36 -999 -999 -999 -999 -999
2007-03-19 09:34:07 51°9.291 2°37.349 -999 -999 -999 -999 -999
2007-03-19 09:34:11 51°9.286 2°37.341 -999 -999 -999 -999 -999
2007-03-19 09:34:17 51°9.279 2°37.328 -999 -999 -999 -999 -999
2007-03-19 09:34:22 51°9.274 2°37.318 -999 -999 -999 -999 -999
2007-03-19 09:34:27 51°9.27 2°37.308 -999 -999 -999 -999 -999
2007-03-19 09:34:32 51°9.265 2°37.298 -999 -999 -999 -999 -999
2007-03-19 09:34:37 51°9.262 2°37.288 -999 -999 -999 -999 -999
2007-03-19 09:34:42 51°9.258 2°37.28 -999 -999 -999 -999 -999
2007-03-19 09:34:47 51°9.256 2°37.271 -999 -999 -999 -999 -999
2007-03-19 09:34:52 51°9.252 2°37.264 -999 -999 -999 -999 -999
2007-03-19 09:34:56 51°9.251 2°37.258 -999 -999 -999 -999 -999
2007-03-19 09:35:02 51°9.248 2°37.249 -999 -999 -999 -999 -999
2007-03-19 09:35:07 51°9.246 2°37.242 -999 -999 -999 -999 -999
2007-03-19 09:35:12 51°9.244 2°37.235 -999 -999 -999 -999 -999
2007-03-19 09:35:16 51°9.243 2°37.228 -999 -999 -999 -999 -999
2007-03-19 09:35:22 51°9.24 2°37.22 -999 -999 -999 -999 -999
2007-03-19 09:35:27 51°9.239 2°37.213 -999 -999 -999 -999 -999
2007-03-19 09:35:32 51°9.238 2°37.206 -999 -999 -999 -999 -999
2007-03-19 09:35:37 51°9.237 2°37.2 -999 -999 -999 -999 -999
2007-03-19 09:35:42 51°9.236 2°37.193 -999 -999 -999 -999 -999
2007-03-19 09:35:46 51°9.236 2°37.188 -999 -999 -999 -999 -999
2007-03-19 09:35:52 51°9.236 2°37.18 -999 -999 -999 -999 -999
2007-03-19 09:35:57 51°9.236 2°37.174 -999 -999 -999 -999 -999
2007-03-19 09:36:02 51°9.235 2°37.168 -999 -999 -999 -999 -999
2007-03-19 09:36:07 51°9.235 2°37.163 -999 -999 -999 -999 -999
2007-03-19 09:36:12 51°9.235 2°37.158 -999 -999 -999 -999 -999
2007-03-19 09:36:17 51°9.234 2°37.153 -999 -999 -999 -999 -999
2007-03-19 09:36:22 51°9.234 2°37.149 -999 -999 -999 -999 -999
2007-03-19 09:36:27 51°9.233 2°37.145 -999 -999 -999 -999 -999
2007-03-19 09:36:32 51°9.233 2°37.143 -999 -999 -999 -999 -999
2007-03-19 09:36:37 51°9.231 2°37.139 -999 -999 -999 -999 -999
2007-03-19 09:36:42 51°9.231 2°37.137 -999 -999 -999 -999 -999
2007-03-19 09:36:47 51°9.229 2°37.134 -999 -999 -999 -999 -999
2007-03-19 09:36:52 51°9.228 2°37.131 -999 -999 -999 -999 -999
2007-03-19 09:36:57 51°9.227 2°37.129 -999 -999 -999 -999 -999
2007-03-19 09:37:02 51°9.225 2°37.127 -999 -999 -999 -999 -999
2007-03-19 09:37:07 51°9.224 2°37.125 -999 -999 -999 -999 -999
2007-03-19 09:37:12 51°9.222 2°37.124 -999 -999 -999 -999 -999
2007-03-19 09:37:16 51°9.221 2°37.122 -999 -999 -999 -999 -999
2007-03-19 09:37:22 51°9.218 2°37.121 -999 -999 -999 -999 -999
2007-03-19 09:37:27 51°9.217 2°37.12 -999 -999 -999 -999 -999
2007-03-19 09:37:32 51°9.214 2°37.12 -999 -999 -999 -999 -999
2007-03-19 09:37:37 51°9.213 2°37.119 -999 -999 -999 -999 -999
2007-03-19 09:37:42 51°9.21 2°37.119 -999 -999 -999 -999 -999
2007-03-19 09:37:47 51°9.208 2°37.119 -999 -999 -999 -999 -999
2007-03-19 09:37:52 51°9.206 2°37.119 -999 -999 -999 -999 -999
2007-03-19 09:37:57 51°9.204 2°37.119 -999 -999 -999 -999 -999
2007-03-19 09:38:02 51°9.203 2°37.119 -999 -999 -999 -999 -999
2007-03-19 09:38:06 51°9.201 2°37.119 -999 -999 -999 -999 -999
2007-03-19 09:38:12 51°9.199 2°37.12 -999 -999 -999 -999 -999
2007-03-19 09:38:17 51°9.197 2°37.12 -999 -999 -999 -999 -999
2007-03-19 09:38:22 51°9.195 2°37.12 -999 -999 -999 -999 -999
2007-03-19 09:38:27 51°9.193 2°37.12 -999 -999 -999 -999 -999
2007-03-19 09:38:32 51°9.192 2°37.121 -999 -999 -999 -999 -999
2007-03-19 09:38:37 51°9.19 2°37.121 -999 -999 -999 -999 -999
2007-03-19 09:38:42 51°9.189 2°37.122 -999 -999 -999 -999 -999
2007-03-19 09:38:47 51°9.187 2°37.122 -999 -999 -999 -999 -999
2007-03-19 09:38:52 51°9.186 2°37.122 -999 -999 -999 -999 -999
2007-03-19 09:38:57 51°9.184 2°37.123 -999 -999 -999 -999 -999
2007-03-19 09:39:02 51°9.183 2°37.123 -999 -999 -999 -999 -999
2007-03-19 09:39:07 51°9.182 2°37.123 -999 -999 -999 -999 -999
2007-03-19 09:39:11 51°9.181 2°37.123 -999 -999 -999 -999 -999
2007-03-19 09:39:16 51°9.179 2°37.123 -999 -999 -999 -999 -999
2007-03-19 09:39:22 51°9.177 2°37.123 -999 -999 -999 -999 -999
2007-03-19 09:39:27 51°9.175 2°37.123 -999 -999 -999 -999 -999
2007-03-19 09:39:32 51°9.174 2°37.123 -999 -999 -999 -999 -999
2007-03-19 09:39:36 51°9.173 2°37.123 -999 -999 -999 -999 -999
2007-03-19 09:39:42 51°9.171 2°37.122 -999 -999 -999 -999 -999
2007-03-19 09:39:47 51°9.169 2°37.123 -999 -999 -999 -999 -999
2007-03-19 09:39:52 51°9.168 2°37.122 -999 -999 -999 -999 -999
2007-03-19 09:39:57 51°9.166 2°37.122 -999 -999 -999 -999 -999
2007-03-19 09:40:02 51°9.164 2°37.122 -999 -999 -999 -999 -999
2007-03-19 09:40:06 51°9.163 2°37.122 -999 -999 -999 -999 -999
2007-03-19 09:40:12 51°9.161 2°37.122 -999 -999 -999 -999 -999
2007-03-19 09:40:17 51°9.159 2°37.121 -999 -999 -999 -999 -999
2007-03-19 09:40:22 51°9.158 2°37.121 -999 -999 -999 -999 -999
2007-03-19 09:40:27 51°9.156 2°37.121 -999 -999 -999 -999 -999
2007-03-19 09:40:32 51°9.155 2°37.121 -999 -999 -999 -999 -999
2007-03-19 09:40:37 51°9.153 2°37.121 -999 -999 -999 -999 -999
2007-03-19 09:40:42 51°9.151 2°37.121 -999 -999 -999 -999 -999
2007-03-19 09:40:47 51°9.15 2°37.121 -999 -999 -999 -999 -999
2007-03-19 09:40:52 51°9.148 2°37.12 -999 -999 -999 -999 -999
2007-03-19 09:40:57 51°9.146 2°37.12 -999 -999 -999 -999 -999
2007-03-19 09:41:02 51°9.145 2°37.12 -999 -999 -999 -999 -999
2007-03-19 09:41:07 51°9.143 2°37.12 -999 -999 -999 -999 -999
2007-03-19 09:41:11 51°9.142 2°37.12 -999 -999 -999 -999 -999
2007-03-19 09:41:16 51°9.14 2°37.12 -999 -999 -999 -999 -999
2007-03-19 09:41:22 51°9.138 2°37.12 -999 -999 -999 -999 -999
2007-03-19 09:41:27 51°9.136 2°37.12 -999 -999 -999 -999 -999
2007-03-19 09:41:32 51°9.135 2°37.119 -999 -999 -999 -999 -999
2007-03-19 09:41:36 51°9.133 2°37.118 -999 -999 -999 -999 -999
2007-03-19 09:41:42 51°9.131 2°37.118 -999 -999 -999 -999 -999
2007-03-19 09:41:47 51°9.129 2°37.118 -999 -999 -999 -999 -999
2007-03-19 09:41:52 51°9.127 2°37.118 -999 -999 -999 -999 -999
2007-03-19 09:41:57 51°9.125 2°37.117 -999 -999 -999 -999 -999
2007-03-19 09:42:02 51°9.124 2°37.116 -999 -999 -999 -999 -999
2007-03-19 09:42:07 51°9.122 2°37.116 -999 -999 -999 -999 -999
2007-03-19 09:42:12 51°9.12 2°37.116 -999 -999 -999 -999 -999
2007-03-19 09:42:17 51°9.118 2°37.116 -999 -999 -999 -999 -999
2007-03-19 09:42:22 51°9.116 2°37.116 -999 -999 -999 -999 -999
2007-03-19 09:42:27 51°9.114 2°37.114 -999 -999 -999 -999 -999
2007-03-19 09:42:32 51°9.112 2°37.115 -999 -999 -999 -999 -999
2007-03-19 09:42:37 51°9.111 2°37.114 -999 -999 -999 -999 -999
2007-03-19 09:42:42 51°9.109 2°37.114 -999 -999 -999 -999 -999
2007-03-19 09:42:47 51°9.107 2°37.114 -999 -999 -999 -999 -999
2007-03-19 09:42:52 51°9.105 2°37.113 -999 -999 -999 -999 -999
2007-03-19 09:42:57 51°9.104 2°37.112 -999 -999 -999 -999 -999
2007-03-19 09:43:02 51°9.102 2°37.112 -999 -999 -999 -999 -999
2007-03-19 09:43:07 51°9.1 2°37.113 -999 -999 -999 -999 -999
2007-03-19 09:43:11 51°9.099 2°37.112 -999 -999 -999 -999 -999